TimeEST,TemperatureF,Dew PointF,Humidity,Sea Level PressureIn,VisibilityMPH,Wind Direction,Wind SpeedMPH,Gust SpeedMPH,PrecipitationIn,Events,Conditions,WindDirDegrees,DateUTC
12:55 AM,26.6,24.8,93,30.10,10.0,Calm,Calm,-,N/A,,Clear,0,2013-01-21 05:55:00
1:15 AM,26.6,24.8,93,30.09,10.0,Calm,Calm,-,N/A,,Clear,0,2013-01-21 06:15:00
1:35 AM,26.6,24.8,93,30.08,10.0,Calm,Calm,-,N/A,,Clear,0,2013-01-21 06:35:00
1:55 AM,24.8,24.8,100,30.08,10.0,Calm,Calm,-,N/A,,Clear,0,2013-01-21 06:55:00
2:15 AM,26.6,24.8,93,30.09,10.0,Calm,Calm,-,N/A,,Clear,0,2013-01-21 07:15:00
2:35 AM,24.8,24.8,100,30.09,10.0,Calm,Calm,-,N/A,,Clear,0,2013-01-21 07:35:00
2:55 AM,24.8,24.8,100,30.09,10.0,Calm,Calm,-,N/A,,Clear,0,2013-01-21 07:55:00
3:15 AM,24.8,24.8,100,30.10,10.0,Calm,Calm,-,N/A,,Clear,0,2013-01-21 08:15:00
3:35 AM,24.8,24.8,100,30.10,10.0,Calm,Calm,-,N/A,,Clear,0,2013-01-21 08:35:00
3:55 AM,24.8,24.8,100,30.09,10.0,Calm,Calm,-,N/A,,Clear,0,2013-01-21 08:55:00
4:15 AM,24.8,24.8,100,30.08,10.0,Calm,Calm,-,N/A,,Clear,0,2013-01-21 09:15:00
4:35 AM,24.8,24.8,100,30.08,10.0,Calm,Calm,-,N/A,,Clear,0,2013-01-21 09:35:00
4:55 AM,24.8,24.8,100,30.08,10.0,Calm,Calm,-,N/A,,Clear,0,2013-01-21 09:55:00
5:15 AM,24.8,24.8,100,30.07,10.0,Calm,Calm,-,N/A,,Clear,0,2013-01-21 10:15:00
5:35 AM,24.8,23.0,93,30.06,10.0,Calm,Calm,-,N/A,,Clear,0,2013-01-21 10:35:00
5:55 AM,24.8,23.0,93,30.07,10.0,Calm,Calm,-,N/A,,Clear,0,2013-01-21 10:55:00
6:15 AM,24.8,23.0,93,30.06,10.0,ENE,4.6,-,N/A,,Clear,60,2013-01-21 11:15:00
6:35 AM,24.8,23.0,93,30.05,10.0,Calm,Calm,-,N/A,,Clear,0,2013-01-21 11:35:00
6:55 AM,24.8,23.0,93,30.05,10.0,Calm,Calm,-,N/A,,Clear,0,2013-01-21 11:55:00
7:15 AM,24.8,23.0,93,30.06,10.0,Calm,Calm,-,N/A,,Clear,0,2013-01-21 12:15:00
7:35 AM,24.8,21.2,86,30.07,10.0,Calm,Calm,-,N/A,,Clear,0,2013-01-21 12:35:00
7:55 AM,24.8,23.0,93,30.08,10.0,Calm,Calm,-,N/A,,Clear,0,2013-01-21 12:55:00
8:15 AM,24.8,24.8,100,30.08,10.0,Calm,Calm,-,N/A,,Clear,0,2013-01-21 13:15:00
8:35 AM,26.6,24.8,93,30.09,10.0,Calm,Calm,-,N/A,,Unknown,0,2013-01-21 13:35:00
8:55 AM,28.4,26.6,93,30.09,0.2,Calm,Calm,-,N/A,Fog,Light Freezing Fog,0,2013-01-21 13:55:00
9:15 AM,30.2,28.4,93,30.09,10.0,Calm,Calm,-,N/A,,Clear,0,2013-01-21 14:15:00
9:35 AM,32.0,28.4,87,30.10,10.0,SSW,3.5,-,N/A,,Clear,210,2013-01-21 14:35:00
9:55 AM,35.6,28.4,75,30.10,10.0,West,4.6,-,N/A,,Scattered Clouds,280,2013-01-21 14:55:00
10:15 AM,39.2,26.6,61,30.11,10.0,West,8.1,-,N/A,,Overcast,260,2013-01-21 15:15:00
10:35 AM,37.4,24.8,60,30.12,10.0,West,8.1,-,N/A,,Overcast,260,2013-01-21 15:35:00
10:55 AM,39.2,24.8,56,30.10,10.0,Variable,4.6,-,N/A,,Overcast,0,2013-01-21 15:55:00
11:15 AM,39.2,23.0,52,30.10,10.0,West,9.2,-,N/A,,Overcast,270,2013-01-21 16:15:00
11:35 AM,39.2,23.0,52,30.09,10.0,West,6.9,-,N/A,,Overcast,260,2013-01-21 16:35:00
11:55 AM,39.2,21.2,49,30.08,10.0,WSW,9.2,-,N/A,,Overcast,240,2013-01-21 16:55:00
12:15 PM,39.2,19.4,45,30.07,10.0,West,6.9,-,N/A,,Overcast,260,2013-01-21 17:15:00
12:35 PM,39.2,19.4,45,30.05,10.0,WSW,12.7,-,N/A,,Overcast,240,2013-01-21 17:35:00
12:55 PM,42.8,19.4,39,30.03,10.0,SW,15.0,-,N/A,,Mostly Cloudy,230,2013-01-21 17:55:00
1:15 PM,41.0,15.8,36,30.02,10.0,West,12.7,-,N/A,,Overcast,260,2013-01-21 18:15:00
1:35 PM,39.2,15.8,39,30.02,10.0,West,16.1,-,N/A,,Overcast,260,2013-01-21 18:35:00
1:55 PM,42.8,19.4,39,30.02,10.0,West,12.7,-,N/A,,Scattered Clouds,270,2013-01-21 18:55:00
2:15 PM,42.8,15.8,34,30.01,10.0,West,17.3,31.1,N/A,,Clear,260,2013-01-21 19:15:00
2:35 PM,42.8,15.8,34,30.01,10.0,WSW,23.0,-,N/A,,Clear,250,2013-01-21 19:35:00
2:55 PM,42.8,15.8,34,30.01,10.0,West,15.0,32.2,N/A,,Clear,260,2013-01-21 19:55:00
3:15 PM,42.8,15.8,34,30.02,10.0,West,16.1,31.1,N/A,,Clear,260,2013-01-21 20:15:00
3:35 PM,41.0,14.0,33,30.02,10.0,West,16.1,31.1,N/A,,Clear,260,2013-01-21 20:35:00
3:55 PM,41.0,14.0,33,30.02,10.0,West,15.0,-,N/A,,Clear,260,2013-01-21 20:55:00
4:15 PM,41.0,14.0,33,30.02,10.0,WSW,15.0,-,N/A,,Clear,250,2013-01-21 21:15:00
4:35 PM,39.2,12.2,33,30.02,10.0,West,11.5,-,N/A,,Clear,260,2013-01-21 21:35:00
4:55 PM,39.2,10.4,31,30.02,10.0,WSW,15.0,-,N/A,,Clear,240,2013-01-21 21:55:00
5:15 PM,37.4,10.4,33,30.02,10.0,WSW,11.5,-,N/A,,Clear,250,2013-01-21 22:15:00
5:35 PM,37.4,10.4,33,30.02,10.0,WSW,9.2,-,N/A,,Clear,250,2013-01-21 22:35:00
5:55 PM,37.4,10.4,33,30.02,10.0,WSW,9.2,-,N/A,,Clear,250,2013-01-21 22:55:00
6:15 PM,35.6,10.4,35,30.02,10.0,WSW,12.7,-,N/A,,Clear,240,2013-01-21 23:15:00
6:35 PM,35.6,12.2,38,30.02,10.0,West,9.2,-,N/A,,Clear,260,2013-01-21 23:35:00
6:55 PM,35.6,12.2,38,30.03,10.0,West,9.2,-,N/A,,Clear,270,2013-01-21 23:55:00
7:15 PM,35.6,12.2,38,30.03,10.0,WSW,6.9,-,N/A,,Clear,250,2013-01-22 00:15:00
7:35 PM,33.8,12.2,41,30.03,10.0,WSW,4.6,-,N/A,,Clear,240,2013-01-22 00:35:00
7:55 PM,33.8,12.2,41,30.03,10.0,WNW,8.1,-,N/A,,Clear,300,2013-01-22 00:55:00
8:15 PM,33.8,12.2,41,30.04,10.0,Variable,6.9,-,N/A,,Clear,0,2013-01-22 01:15:00
8:35 PM,32.0,12.2,44,30.04,10.0,Variable,5.8,-,N/A,,Clear,0,2013-01-22 01:35:00
8:55 PM,32.0,10.4,41,30.04,10.0,West,9.2,-,N/A,,Clear,280,2013-01-22 01:55:00
9:15 PM,30.2,10.4,44,30.05,10.0,WSW,8.1,-,N/A,,Clear,250,2013-01-22 02:15:00
9:35 PM,30.2,10.4,44,30.05,10.0,WSW,8.1,-,N/A,,Clear,240,2013-01-22 02:35:00
9:55 PM,30.2,10.4,44,30.06,10.0,WSW,8.1,-,N/A,,Clear,240,2013-01-22 02:55:00
10:15 PM,30.2,8.6,40,30.06,10.0,West,8.1,-,N/A,,Clear,270,2013-01-22 03:15:00
10:35 PM,28.4,6.8,40,30.07,10.0,West,10.4,-,N/A,,Clear,260,2013-01-22 03:35:00
10:55 PM,28.4,8.6,43,30.09,10.0,Variable,6.9,-,N/A,,Mostly Cloudy,0,2013-01-22 03:55:00
11:15 PM,28.4,8.6,43,30.09,10.0,West,10.4,-,N/A,,Overcast,280,2013-01-22 04:15:00
11:35 PM,26.6,8.6,47,30.10,10.0,Variable,6.9,-,N/A,,Overcast,0,2013-01-22 04:35:00
11:55 PM,26.6,6.8,43,30.10,10.0,West,9.2,-,N/A,,Mostly Cloudy,280,2013-01-22 04:55:00